Location: Москва
(55.7504°N, 37.6175°E)
Time: 14:52:07
(UTC+03:00)

Envisat - Pass Details

Date: 23 September 2021
Orbit: 764 x 766 km, 98.2° (Epoch: 20 October)

Event Time Altitude Azimuth Distance (km) Brightness Sun altitude
Rises 04:48:21 0° 21° (NNE) 3,247 6.9 -13.0°
Reaches altitude 10° 04:51:01 10° 34° (NE) 2,315 6.3 -12.7°
Maximum altitude 04:55:19 27° 91° (E) 1,452 5.3 -12.1°
Drops below altitude 10° 04:59:35 10° 149° (SSE) 2,300 5.7 -11.5°
Sets 05:02:13 0° 161° (SSE) 3,221 6.3 -11.2°
